ELEKTRON 3 DEB, 831

Orbit data source: Space-Track

ELEKTRON 3 DEB, 831 is space debris in LEO originally from a launch on Fri, 10 Jul 1964 UTC launched from the Tyuratam Missile And Space Complex (TTMTR). Debris objects in space refer to the collection of defunct objects orbiting the Earth. Examples of debris include non-operational satellites, rocket bodies, and fragments generated from explosions, collisions, or faulty payload assembly.

Loading next visibility...
ELEKTRON 3 DEB details
Identifier
831, 1964-038C
Orbit
LEO
Last TLE update11 hours ago
Origin
Flag of CISOKB-1 (CIS)
ManufacturerOKB-1
MissionSpacecraft
Bus & MotorADAPTER, Unknown motor
MassUnknown
Launch date (UTC)
1964-07-10 (61 years ago)
Launch vehicleUnknown
Launch site
Tyuratam Missile And Space Complex (TTMTR)
Object type
Payload
Rocket body
Debris
Shape & HBRUnknown
Radar Cross SectionMedium (>0.1 m² and <1 m²)

Expand to show TLE details & history

TLE from 11 hours ago
0 ELEKTRON 3 DEB
1   831U 64038C   25043.13916900  .00023368  00000-0  21478-2 0  9992
2   831  60.6753 358.0083 1349502 132.3166 240.0395 12.58818320303573
Epoch: 2025-02-12T03:20Z
Definitive object data (Epoch: 2025-02-12T03:20:24.201Z)
Latitude-0.00002°
Longitude165.47352°
Altitude2,051.589 km
Speed6.598 km/s
True Right ascension23h 52m 01s
True Declination0° 00' 00"
Sunlit
Object was in daylight at TLE epoch
Visualization TLE readout
Latitude-13.63518°
Longitude156.4974°
Altitude2,281.275 km
Speed6.406 km/s
Apparent Right ascension01h 15m 49s
Apparent Declination-31° 51' 45"
Sunlit
Object is in daylight
Visualization observer readout
Local Sidereal Time17:11:47
Azimuth99.676° ESE
Elevation-42.402°
Doppler factor1
Orbital elements
Apogee altitude2,480.325 km
Perigee altitude373.71 km
Semi-major axis7,805.154 km
Eccentricity0.1349502
Inclination60.6753°
RAAN358.0083°
Arg. of periapsis132.3166°
True anomaly227.7787°
Mean anomaly240.0395°
Eccentric anomaly233.80002°
Mean motion3.14754 °/min
BSTAR0.0021478
Orbital period114.38 mins
Loading maneuver chart data...
Loading historical data...
Loading historical data...
Loading historical data...
Loading historical data...
Loading historical data...
Loading historical data...
Loading historical data...

ELEKTRON 3 DEB Visibility forecast

Observer location: undefined°, undefined

Span
Click to sort rows by Start time (UTC) header in descending order
Start Az.
Max El. time (UTC)
Max El. Az.
Max El.
End time (UTC)
End Az.
7 mins2025-02-12 20:36:39.540Z139.824° SSE2025-02-12 20:40:39.540Z115.524° SE13.686°2025-02-12 20:43:39.540Z93.377° ESE
14 mins2025-02-12 22:30:39.540Z204.14° SW2025-02-12 22:39:39.540Z107.971° ESE42.741°2025-02-12 22:44:39.540Z45.48° ENE
9 mins2025-02-13 00:32:39.540Z266.196° W2025-02-13 00:37:39.540Z312.546° NW24.872°2025-02-13 00:41:39.540Z7.836° NNE
|